Вернуться в каталог

STARLINK-31775

АктивенСвязьVLEO
NORAD 60052·PAYLOAD·🇺🇸 United States

Запущен Jun 8, 2024 с Vandenberg Space Force Base

Loading…

Ближайшие Пролёты (ближайшие 24 часа)

TLE

СвежийSource: CelesTrak SupGP

Эпоха: Sep 14, 2026, 22:07 UTC

1 60052C 24112Q   26257.92201389  .00049139  00000+0  14516-2 0  2570
2 60052  53.1560 277.6025 0001023  80.1753 117.1778 15.34369874    17

Отслеживайте STARLINK-31775 в реальном времени с AllMySat

Download on the App Store